HR1LRC-21 Weather Reports


time (UTC)temp
C
wind
direction
speed
KPH
gust
KPH
rain 1hr
cm
rain 24hr
cm
rain mn
cm
humidity
%
barometer
mb
20260502213558 26 199 11.3 11.3 0.00 0.00 0.00 43 1008.0
20260502212557 26 181 9.7 9.7 0.00 0.00 0.00 42 1008.0
20260502211557 26 181 9.7 9.7 0.00 0.00 0.00 39 1008.0
20260502210556 26 181 9.7 9.7 0.00 0.00 0.00 39 1008.0
20260502205555 26 181 9.7 9.7 0.00 0.00 0.00 38 1008.0
20260502204555 26 181 9.7 9.7 0.00 0.00 0.00 39 1008.0
20260502203554 26 181 9.7 9.7 0.00 0.00 0.00 39 1008.0
20260502202553 26 153 6.4 8.0 0.00 0.00 0.00 40 1008.0
20260502201553 27 153 6.4 8.0 0.00 0.00 0.00 39 1008.0
20260502200552 27 153 6.4 8.0 0.00 0.00 0.00 39 1008.0
20260502195552 26 153 6.4 8.0 0.00 0.00 0.00 38 1008.0
20260502194551 26 153 6.4 8.0 0.00 0.00 0.00 39 1008.0
20260502193550 26 153 6.4 8.0 0.00 0.00 0.00 39 1008.0
20260502192550 26 157 6.4 6.4 0.00 0.00 0.00 41 1009.0
20260502191549 26 157 6.4 6.4 0.00 0.00 0.00 40 1009.0
20260502190548 26 157 6.4 6.4 0.00 0.00 0.00 40 1009.0
20260502185548 26 157 6.4 6.4 0.00 0.00 0.00 39 1009.0
20260502184547 26 157 6.4 6.4 0.00 0.00 0.00 41 1010.0
20260502183546 26 157 6.4 6.4 0.00 0.00 0.00 41 1010.0
20260502182546 25 159 6.4 4.8 0.00 0.00 0.00 44 1011.0
20260502181545 25 159 6.4 4.8 0.00 0.00 0.00 44 1011.0
20260502180545 25 159 6.4 4.8 0.00 0.00 0.00 44 1011.0
20260502163537 24 158 6.4 4.8 0.00 0.00 0.00 51 1013.0
20260502162537 23 157 4.8 3.2 0.00 0.00 0.00 56 1014.0
20260502161536 22 157 4.8 3.2 0.00 0.00 0.00 56 1013.0
20260502160535 22 157 4.8 3.2 0.00 0.00 0.00 56 1013.0
20260502151532 21 162 4.8 1.6 0.00 0.00 0.00 60 1014.0
20260502150532 21 162 4.8 1.6 0.00 0.00 0.00 60 1014.0
20260502130524 20 215 1.6 4.8 0.00 0.00 0.00 62 1013.0
20260502123522 20 215 1.6 4.8 0.00 0.00 0.00 62 1013.0
20260502122521 20 215 1.6 4.8 0.00 0.00 0.00 62 1013.0
20260502121521 20 215 1.6 4.8 0.00 0.00 0.00 62 1013.0
20260502120520 20 215 1.6 4.8 0.00 0.00 0.00 62 1013.0
20260502115519 20 215 1.6 4.8 0.00 0.00 0.00 62 1013.0
20260502114519 20 215 1.6 4.8 0.00 0.00 0.00 62 1013.0
20260502113518 20 215 1.6 4.8 0.00 0.00 0.00 62 1013.0
20260502112518 20 215 1.6 4.8 0.00 0.00 0.00 62 1013.0
20260502111517 20 215 1.6 4.8 0.00 0.00 0.00 62 1013.0
20260502110516 20 215 1.6 4.8 0.00 0.00 0.00 62 1013.0
20260502105516 20 215 1.6 4.8 0.00 0.00 0.00 62 1013.0
20260502104515 20 215 1.6 4.8 0.00 0.00 0.00 62 1013.0
20260502103514 20 215 1.6 4.8 0.00 0.00 0.00 62 1013.0
20260502102514 20 215 1.6 4.8 0.00 0.00 0.00 62 1013.0
20260502101513 20 215 1.6 4.8 0.00 0.00 0.00 62 1012.0
20260502100513 20 215 1.6 4.8 0.00 0.00 0.00 62 1012.0
20260502091510 20 215 1.6 4.8 0.00 0.00 0.00 62 1012.0
20260502090509 20 215 1.6 4.8 0.00 0.00 0.00 62 1012.0
20260502071502 20 215 1.6 4.8 0.00 0.00 0.00 62 1013.0
20260502070501 20 215 1.6 4.8 0.00 0.00 0.00 62 1013.0
20260502065500 20 215 1.6 4.8 0.00 0.00 0.00 62 1012.0
20260502064500 20 215 1.6 4.8 0.00 0.00 0.00 62 1012.0
20260502063459 20 215 1.6 4.8 0.00 0.00 0.00 62 1012.0
20260502062459 20 215 1.6 4.8 0.00 0.00 0.00 62 1013.0
20260502061458 20 215 3.2 4.8 0.00 0.00 0.00 62 1013.0
20260502060457 22 196 4.8 8.0 0.00 0.00 0.00 56 1013.0
20260502055457 22 196 4.8 8.0 0.00 0.00 0.00 56 1013.0
20260502054456 22 196 4.8 8.0 0.00 0.00 0.00 56 1013.0
20260502053455 22 196 4.8 8.0 0.00 0.00 0.00 56 1013.0
20260502052455 22 196 4.8 8.0 0.00 0.00 0.00 56 1014.0
20260502051454 22 196 4.8 8.0 0.00 0.00 0.00 56 1013.0
20260502050453 22 196 4.8 8.0 0.00 0.00 0.00 56 1013.0
20260502045453 22 196 4.8 8.0 0.00 0.00 0.00 56 1013.0
20260502044452 22 196 4.8 8.0 0.00 0.00 0.00 56 1013.0
20260502043451 22 196 4.8 8.0 0.00 0.00 0.00 56 1013.0
20260502041450 22 196 4.8 8.0 0.00 0.00 0.00 56 1012.0
20260502040449 22 196 4.8 8.0 0.00 0.00 0.00 56 1012.0
20260502035449 22 196 4.8 8.0 0.00 0.00 0.00 56 1012.0
20260502034448 22 196 4.8 8.0 0.00 0.00 0.00 56 1012.0
20260502033448 22 196 4.8 8.0 0.00 0.00 0.00 56 1012.0
20260502032447 22 196 4.8 8.0 0.00 0.00 0.00 56 1012.0
20260502031446 22 196 4.8 8.0 0.00 0.00 0.00 56 1012.0
20260502030446 22 196 4.8 8.0 0.00 0.00 0.00 56 1012.0
20260502025445 22 196 4.8 8.0 0.00 0.00 0.00 56 1012.0
20260502024444 22 196 4.8 8.0 0.00 0.00 0.00 56 1012.0
20260502023444 22 196 4.8 8.0 0.00 0.00 0.00 56 1012.0
20260502022443 22 196 4.8 8.0 0.00 0.00 0.00 56 1012.0
20260502021442 22 196 4.8 8.0 0.00 0.00 0.00 56 1011.0
20260502020442 22 196 4.8 8.0 0.00 0.00 0.00 56 1011.0
20260502015441 22 196 4.8 8.0 0.00 0.00 0.00 56 1011.0
20260502014440 22 196 4.8 9.7 0.00 0.00 0.00 56 1011.0
20260502013440 25 207 6.4 8.0 0.00 0.00 0.00 39 1011.0
20260502012439 25 207 6.4 8.0 0.00 0.00 0.00 39 1011.0
20260502011438 25 207 6.4 8.0 0.00 0.00 0.00 39 1010.0
20260502010438 25 207 6.4 8.0 0.00 0.00 0.00 39 1010.0
20260502005437 25 207 6.4 8.0 0.00 0.00 0.00 39 1010.0
20260502004436 25 207 6.4 8.0 0.00 0.00 0.00 39 1009.0
20260502003436 25 207 6.4 8.0 0.00 0.00 0.00 39 1009.0
20260502002435 25 207 6.4 8.0 0.00 0.00 0.00 39 1009.0
20260502001434 25 207 6.4 8.0 0.00 0.00 0.00 39 1008.0
20260502000434 25 207 6.4 8.0 0.00 0.00 0.00 39 1008.0
20260501235433 25 207 6.4 8.0 0.00 0.00 0.00 39 1008.0
20260501234433 25 207 6.4 8.0 0.00 0.00 0.00 39 1009.0
20260501233432 25 207 6.4 8.0 0.00 0.00 0.00 39 1009.0
20260501232431 25 207 6.4 8.0 0.00 0.00 0.00 39 1009.0
20260501231431 25 207 6.4 8.0 0.00 0.00 0.00 39 1008.0
20260501230430 25 207 6.4 8.0 0.00 0.00 0.00 39 1008.0
20260501225430 25 207 6.4 8.0 0.00 0.00 0.00 39 1007.0
20260501224429 25 207 6.4 8.0 0.00 0.00 0.00 39 1008.0
20260501223428 25 207 6.4 8.0 0.00 0.00 0.00 39 1008.0
20260501222428 25 188 8.0 9.7 0.00 0.00 0.00 38 1009.0
20260501221427 25 188 8.0 9.7 0.00 0.00 0.00 36 1008.0
20260501220426 25 188 8.0 9.7 0.00 0.00 0.00 36 1008.0
20260501215426 25 188 8.0 9.7 0.00 0.00 0.00 35 1008.0